T10BNORTH Weather Reports


time (UTC)temp
C
wind
direction
speed
KPH
gust
KPH
rain 1hr
cm
rain 24hr
cm
rain mn
cm
humidity
%
barometer
mb
20260504183131 16 307 6.4 17.7 0.00 0.00 0.00 53 1004.8
20260504183030 16 129 6.4 22.5 0.00 0.00 0.00 53 1004.8
20260504182816 16 185 4.8 22.5 0.00 0.00 0.00 53 1004.8
20260504182715 16 136 4.8 22.5 0.00 0.00 0.00 56 1004.9
20260504182615 16 319 4.8 22.5 0.00 0.00 0.00 56 1004.9
20260504182515 16 121 4.8 22.5 0.00 0.00 0.00 54 1004.9
20260504182310 15 178 6.4 22.5 0.00 0.00 0.00 54 1004.8
20260504182208 15 126 6.4 22.5 0.00 0.00 0.00 55 1004.8
20260504182109 15 126 6.4 19.3 0.00 0.00 0.00 58 1004.8
20260504182036 15 91 6.4 19.3 0.00 0.00 0.00 55 1004.9
20260504182014 15 49 6.4 19.3 0.00 0.00 0.00 55 1004.9
20260504181804 15 176 6.4 19.3 0.00 0.00 0.00 55 1005.0
20260504181703 15 106 8.0 19.3 0.00 0.00 0.00 55 1004.9
20260504181604 15 178 6.4 19.3 0.00 0.00 0.00 54 1004.9
20260504181505 15 142 6.4 19.3 0.00 0.00 0.00 54 1004.9
20260504181252 15 103 6.4 16.1 0.00 0.00 0.00 56 1005.0
20260504181153 15 151 6.4 16.1 0.00 0.00 0.00 55 1005.0
20260504181054 15 247 6.4 16.1 0.00 0.00 0.00 55 1004.9
20260504181019 15 269 6.4 16.1 0.00 0.00 0.00 55 1005.0
20260504180958 15 132 4.8 16.1 0.00 0.00 0.00 55 1004.9
20260504180749 15 152 4.8 14.5 0.00 0.00 0.00 55 1004.9
20260504180648 15 266 4.8 12.9 0.00 0.00 0.00 56 1005.0
20260504180547 15 30 4.8 14.5 0.00 0.00 0.00 56 1005.0
20260504180448 15 24 4.8 16.1 0.00 0.00 0.00 56 1004.9
20260504180242 14 172 4.8 16.1 0.00 0.00 0.00 58 1005.0
20260504180143 14 221 4.8 16.1 0.00 0.00 0.00 56 1005.0
20260504180042 14 110 4.8 16.1 0.00 0.00 0.00 56 1005.1
20260504175940 14 251 4.8 16.1 0.00 0.00 0.00 57 1005.1
20260504175730 14 30 4.8 16.1 0.00 0.00 0.00 59 1005.0
20260504175630 13 179 3.2 16.1 0.00 0.00 0.00 57 1005.3
20260504175529 13 161 3.2 11.3 0.00 0.00 0.00 56 1005.3
20260504175430 13 221 3.2 11.3 0.00 0.00 0.00 57 1005.3
20260504175224 13 229 3.2 11.3 0.00 0.00 0.00 58 1005.3
20260504175122 13 173 3.2 17.7 0.00 0.00 0.00 59 1005.3
20260504175022 13 154 3.2 17.7 0.00 0.00 0.00 59 1005.1
20260504174923 13 80 3.2 17.7 0.00 0.00 0.00 60 1005.1
20260504174716 13 142 4.8 17.7 0.00 0.00 0.00 60 1005.1
20260504174615 12 143 4.8 17.7 0.00 0.00 0.00 60 1005.1
20260504174516 12 25 4.8 17.7 0.00 0.00 0.00 62 1005.1
20260504174416 12 13 4.8 17.7 0.00 0.00 0.00 60 1005.1
20260504174205 12 0 4.8 17.7 0.00 0.00 0.00 61 1005.3
20260504174104 12 23 4.8 14.5 0.00 0.00 0.00 60 1005.3
20260504174006 12 25 3.2 14.5 0.00 0.00 0.00 60 1005.1
20260504173906 12 355 3.2 14.5 0.00 0.00 0.00 60 1005.4
20260504173700 12 333 3.2 14.5 0.00 0.00 0.00 60 1005.4
20260504173559 12 10 3.2 14.5 0.00 0.00 0.00 60 1005.4
20260504173500 12 277 3.2 14.5 0.00 0.00 0.00 60 1005.4
20260504173358 12 233 3.2 14.5 0.00 0.00 0.00 60 1005.5
20260504173154 12 5 3.2 9.7 0.00 0.00 0.00 60 1005.5
20260504173053 12 309 3.2 9.7 0.00 0.00 0.00 60 1005.5
20260504172955 13 309 3.2 9.7 0.00 0.00 0.00 60 1005.4
20260504172919 13 311 3.2 9.7 0.00 0.00 0.00 60 1005.4
20260504172858 13 47 3.2 9.7 0.00 0.00 0.00 59 1005.4
20260504172640 13 11 3.2 11.3 0.00 0.00 0.00 60 1005.4
20260504172539 13 220 3.2 14.5 0.00 0.00 0.00 59 1005.4
20260504172438 13 335 4.8 14.5 0.00 0.00 0.00 59 1005.3
20260504172339 13 350 3.2 14.5 0.00 0.00 0.00 61 1005.3
20260504172135 13 298 4.8 24.1 0.00 0.00 0.00 60 1005.4
20260504172033 12 301 4.8 24.1 0.00 0.00 0.00 61 1005.4
20260504171934 12 296 6.4 24.1 0.00 0.00 0.00 60 1005.3
20260504171832 12 9 6.4 24.1 0.00 0.00 0.00 62 1005.3
20260504171631 13 24 6.4 24.1 0.00 0.00 0.00 59 1005.3
20260504171530 13 299 6.4 24.1 0.00 0.00 0.00 61 1005.1
20260504171433 13 298 6.4 24.1 0.00 0.00 0.00 60 1005.1
20260504171330 13 315 4.8 24.1 0.00 0.00 0.00 58 1005.1
20260504171120 13 318 4.8 19.3 0.00 0.00 0.00 59 1005.0
20260504171020 13 5 4.8 19.3 0.00 0.00 0.00 57 1004.9
20260504170919 13 350 4.8 19.3 0.00 0.00 0.00 57 1005.1
20260504170818 13 32 4.8 19.3 0.00 0.00 0.00 57 1005.0
20260504170718 13 86 4.8 19.3 0.00 0.00 0.00 58 1005.0
20260504170611 13 200 4.8 19.3 0.00 0.00 0.00 58 1005.0
20260504170511 13 323 4.8 19.3 0.00 0.00 0.00 57 1005.0
20260504170411 13 355 4.8 19.3 0.00 0.00 0.00 57 1004.9
20260504170339 13 261 4.8 19.3 0.00 0.00 0.00 58 1004.9
20260504170212 13 75 4.8 14.5 0.00 0.00 0.00 57 1005.0
20260504170105 13 228 4.8 14.5 0.00 0.00 0.00 56 1005.0
20260504160436 13 331 6.4 19.3 0.00 0.00 0.00 56 1004.7
20260504160347 13 294 6.4 19.3 0.00 0.00 0.00 56 1004.7
20260504160326 13 114 6.4 19.3 0.00 0.00 0.00 57 1004.7
20260504160136 13 308 6.4 19.3 0.00 0.00 0.00 57 1004.6
20260504151115 14 130 8.0 22.5 0.00 0.00 0.00 54 1004.7
20260504151016 14 140 8.0 22.5 0.00 0.00 0.00 54 1004.7
20260504150916 14 123 6.4 16.1 0.00 0.00 0.00 55 1004.7
20260504150805 14 64 6.4 16.1 0.00 0.00 0.00 54 1004.7
20260504150606 14 169 4.8 20.9 0.00 0.00 0.00 56 1004.7
20260504150505 14 88 4.8 20.9 0.00 0.00 0.00 55 1004.8
20260504150405 14 77 4.8 20.9 0.00 0.00 0.00 54 1004.8
20260504150259 14 180 4.8 20.9 0.00 0.00 0.00 57 1004.8
20260504150200 14 90 4.8 20.9 0.00 0.00 0.00 55 1004.8
20260504141308 12 322 6.4 17.7 0.00 0.00 0.00 57 1005.4
20260504141209 12 266 6.4 17.7 0.00 0.00 0.00 57 1005.4
20260504141108 12 167 4.8 14.5 0.00 0.00 0.00 57 1005.4
20260504141008 13 148 4.8 14.5 0.00 0.00 0.00 58 1005.4
20260504140909 13 169 4.8 14.5 0.00 0.00 0.00 59 1005.4
20260504140808 12 110 4.8 14.5 0.00 0.00 0.00 58 1005.5
20260504140708 12 205 4.8 14.5 0.00 0.00 0.00 59 1005.5
20260504140609 12 243 4.8 19.3 0.00 0.00 0.00 58 1005.4
20260504140508 12 168 4.8 19.3 0.00 0.00 0.00 59 1005.4
20260504140410 12 254 4.8 19.3 0.00 0.00 0.00 59 1005.5
20260504140302 12 330 4.8 19.3 0.00 0.00 0.00 59 1005.5
20260504140202 12 94 4.8 19.3 0.00 0.00 0.00 59 1005.5
20260504140104 12 11 6.4 19.3 0.00 0.00 0.00 59 1005.5
20260504130730 8 124 4.8 19.3 0.00 0.00 0.00 74 1006.0
20260504130632 8 164 4.8 19.3 0.00 0.00 0.00 74 1006.1
20260504130530 8 128 4.8 19.3 0.00 0.00 0.00 74 1006.1
20260504130431 8 196 4.8 19.3 0.00 0.00 0.00 74 1006.1
20260504130331 8 161 4.8 19.3 0.00 0.00 0.00 74 1006.1
20260504130230 8 278 4.8 19.3 0.00 0.00 0.00 75 1006.2
20260504130132 8 133 4.8 19.3 0.00 0.00 0.00 75 1006.2
20260504120314 7 188 4.8 12.9 0.00 0.00 0.00 79 1006.4
20260504120239 7 164 3.2 12.9 0.00 0.00 0.00 79 1006.4
20260504120218 7 140 3.2 12.9 0.00 0.00 0.00 79 1006.4
20260504110647 4 92 0.0 0.0 0.00 0.00 0.00 84 1006.6
20260504110546 4 92 0.0 0.0 0.00 0.00 0.00 85 1006.6
20260504110342 4 92 0.0 0.0 0.00 0.00 0.00 84 1006.7
20260504110241 4 92 0.0 0.0 0.00 0.00 0.00 84 1006.7
20260504110141 4 92 0.0 0.0 0.00 0.00 0.00 84 1006.7
20260504100611 3 92 0.0 0.0 0.00 0.00 0.00 83 1006.5
20260504100510 3 92 0.0 0.0 0.00 0.00 0.00 83 1006.5
20260504100410 3 92 0.0 0.0 0.00 0.00 0.00 84 1006.5
20260504100204 3 92 0.0 0.0 0.00 0.00 0.00 83 1006.6
20260504100104 3 92 0.0 0.0 0.00 0.00 0.00 83 1006.6
20260504081929 4 90 0.0 3.2 0.00 0.00 0.00 78 1006.7
20260504081859 4 58 0.0 6.4 0.00 0.00 0.00 78 1006.7
20260504081726 4 58 0.0 6.4 0.00 0.00 0.00 78 1006.7
20260504081650 4 58 0.0 6.4 0.00 0.00 0.00 78 1006.8
20260504081629 4 58 0.0 6.4 0.00 0.00 0.00 78 1006.7
20260504081414 4 58 0.0 6.4 0.00 0.00 0.00 78 1006.7
20260504081314 4 58 0.0 6.4 0.00 0.00 0.00 78 1006.6
20260504081214 4 58 0.0 6.4 0.00 0.00 0.00 78 1006.6
20260504081115 4 58 0.0 6.4 0.00 0.00 0.00 78 1006.6
20260504080911 4 59 0.0 6.4 0.00 0.00 0.00 77 1006.6
20260504080812 4 211 0.0 3.2 0.00 0.00 0.00 77 1006.7
20260504080713 4 211 0.0 3.2 0.00 0.00 0.00 77 1006.7
20260504080634 4 211 0.0 3.2 0.00 0.00 0.00 78 1006.8
20260504080613 4 211 0.0 3.2 0.00 0.00 0.00 78 1006.8
20260504080409 4 211 0.0 3.2 0.00 0.00 0.00 78 1006.8
20260504080307 4 211 0.0 3.2 0.00 0.00 0.00 77 1006.8
20260504080205 4 211 0.0 3.2 0.00 0.00 0.00 78 1006.7
20260504080106 4 211 0.0 3.2 0.00 0.00 0.00 78 1006.7
20260504070243 5 342 1.6 12.9 0.00 0.00 0.00 69 1006.6
20260504070141 5 342 1.6 12.9 0.00 0.00 0.00 69 1006.6
20260504060221 3 44 1.6 8.0 0.00 0.00 0.00 65 1006.3
20260504060119 3 259 1.6 6.4 0.00 0.00 0.00 64 1006.3
20260504050659 2 13 1.6 8.0 0.00 0.00 0.00 68 1006.4
20260504050600 2 13 1.6 8.0 0.00 0.00 0.00 69 1006.4
20260504050458 2 13 1.6 8.0 0.00 0.00 0.00 69 1006.5
20260504050356 2 12 1.6 8.0 0.00 0.00 0.00 68 1006.4
20260504050258 2 15 0.0 8.0 0.00 0.00 0.00 68 1006.4
20260504050157 2 231 0.0 6.4 0.00 0.00 0.00 71 1006.4
20260504045955 2 316 0.0 6.4 0.00 0.00 0.00 70 1006.5
20260504045857 2 316 0.0 6.4 0.00 0.00 0.00 69 1006.4
20260504045753 2 207 0.0 0.0 0.00 0.00 0.00 68 1006.5
20260504045653 2 207 0.0 0.0 0.00 0.00 0.00 70 1006.5
20260504045551 2 207 0.0 0.0 0.00 0.00 0.00 70 1006.6
20260504045451 2 207 0.0 0.0 0.00 0.00 0.00 70 1006.6
20260504045348 2 207 0.0 0.0 0.00 0.00 0.00 70 1006.5
20260504045247 2 207 0.0 0.0 0.00 0.00 0.00 70 1006.6
20260504045146 2 207 0.0 0.0 0.00 0.00 0.00 67 1006.5
20260504045045 2 207 0.0 0.0 0.00 0.03 0.00 69 1006.5
20260504044943 2 207 0.0 0.0 0.00 0.03 0.00 71 1006.6
20260504044922 2 207 0.0 3.2 0.00 0.03 0.00 69 1006.6
20260504044740 2 207 0.0 3.2 0.00 0.03 0.00 69 1006.6
20260504044639 1 207 0.0 3.2 0.00 0.03 0.00 68 1006.6
20260504044538 1 207 0.0 3.2 0.00 0.03 0.00 68 1006.6
20260504044439 1 207 0.0 3.2 0.00 0.03 0.00 69 1006.6
20260504044338 1 207 0.0 3.2 0.00 0.03 0.00 69 1006.6
20260504044235 1 207 0.0 3.2 0.00 0.03 0.00 69 1006.6
20260504044133 1 207 0.0 3.2 0.00 0.03 0.00 69 1006.6
20260504044033 1 207 0.0 3.2 0.00 0.03 0.00 70 1006.6
20260504043931 1 207 0.0 3.2 0.00 0.03 0.00 68 1006.6
20260504043732 2 206 0.0 3.2 0.00 0.03 0.00 69 1006.6
20260504043631 2 206 0.0 3.2 0.00 0.03 0.00 69 1006.6
20260504043532 2 206 0.0 3.2 0.00 0.03 0.00 68 1006.6
20260504043429 2 206 0.0 3.2 0.00 0.03 0.00 68 1006.6
20260504043328 2 206 0.0 3.2 0.00 0.03 0.00 67 1006.6
20260504043227 2 206 0.0 3.2 0.00 0.03 0.00 68 1006.7
20260504043125 2 206 0.0 3.2 0.00 0.03 0.00 69 1006.7
20260504043020 2 206 0.0 3.2 0.00 0.03 0.00 69 1006.6
20260504042919 2 206 0.0 3.2 0.00 0.03 0.00 69 1006.6
20260504042821 2 206 0.0 3.2 0.00 0.03 0.00 67 1006.6
20260504042720 2 206 0.0 3.2 0.00 0.03 0.00 67 1006.6
20260504042619 2 206 0.0 0.0 0.00 0.03 0.00 67 1006.7
20260504042513 2 206 0.0 0.0 0.00 0.03 0.00 67 1006.7
20260504042424 2 206 0.0 0.0 0.00 0.03 0.00 68 1006.7
20260504042404 2 206 0.0 0.0 0.00 0.03 0.00 69 1006.7
20260504042208 2 206 0.0 0.0 0.00 0.03 0.00 69 1006.7
20260504042105 2 206 0.0 1.6 0.00 0.03 0.00 68 1006.7
20260504042006 2 206 0.0 1.6 0.00 0.03 0.00 70 1006.7
20260504041903 2 206 0.0 1.6 0.00 0.03 0.00 68 1006.7
20260504041804 2 206 0.0 1.6 0.00 0.03 0.00 69 1006.7
20260504041702 2 206 0.0 1.6 0.00 0.03 0.00 69 1006.7
20260504041559 2 206 0.0 1.6 0.00 0.03 0.00 67 1006.7
20260504041459 2 206 0.0 1.6 0.00 0.03 0.00 68 1006.7
20260504041357 2 206 0.0 3.2 0.00 0.03 0.00 68 1006.7
20260504041156 2 206 0.0 3.2 0.00 0.03 0.00 68 1006.6
20260504041053 2 206 0.0 3.2 0.00 0.03 0.00 68 1006.6
20260504040948 2 206 0.0 3.2 0.00 0.03 0.00 69 1006.6
20260504040847 2 206 0.0 3.2 0.00 0.03 0.00 67 1006.6
20260504040748 2 206 0.0 3.2 0.00 0.03 0.00 68 1006.6
20260504040645 2 206 0.0 3.2 0.00 0.03 0.00 68 1006.6
20260504040543 2 206 0.0 3.2 0.00 0.03 0.00 68 1006.6
20260504040440 2 206 0.0 3.2 0.00 0.03 0.00 66 1006.6
20260504040342 2 206 0.0 0.0 0.00 0.03 0.00 66 1006.5
20260504040243 2 206 0.0 0.0 0.00 0.03 0.00 67 1006.6
20260504040139 2 206 0.0 0.0 0.00 0.03 0.00 67 1006.5
20260504040039 2 206 0.0 0.0 0.00 0.03 0.00 66 1006.6
20260504035938 2 206 0.0 0.0 0.00 0.03 0.03 67 1006.6
20260504035837 2 206 0.0 0.0 0.00 0.03 0.03 66 1006.5
20260504035736 3 206 0.0 0.0 0.00 0.03 0.03 66 1006.5
20260504035635 3 206 0.0 0.0 0.00 0.03 0.03 65 1006.4
20260504035534 3 206 0.0 0.0 0.00 0.03 0.03 66 1006.4
20260504035434 3 206 0.0 0.0 0.00 0.03 0.03 66 1006.5
20260504035334 3 206 0.0 0.0 0.00 0.03 0.03 65 1006.4
20260504035234 3 206 0.0 0.0 0.00 0.03 0.03 65 1006.4
20260504035132 3 206 0.0 0.0 0.00 0.03 0.03 65 1006.4
20260504035030 3 206 0.0 1.6 0.00 0.03 0.03 65 1006.4
20260504034929 3 206 0.0 1.6 0.00 0.03 0.03 65 1006.4
20260504034827 3 206 0.0 3.2 0.00 0.03 0.03 66 1006.4
20260504034726 3 206 0.0 3.2 0.00 0.03 0.03 65 1006.4
20260504034625 3 206 0.0 3.2 0.00 0.03 0.03 65 1006.4
20260504034526 3 206 0.0 3.2 0.00 0.03 0.03 67 1006.4
20260504034423 3 206 0.0 3.2 0.00 0.03 0.03 66 1006.4
20260504034321 3 206 0.0 3.2 0.00 0.03 0.03 65 1006.4
20260504034221 3 206 0.0 3.2 0.00 0.03 0.03 65 1006.4
20260504034120 3 206 0.0 3.2 0.00 0.03 0.03 65 1006.4
20260504034019 3 206 0.0 3.2 0.00 0.03 0.03 66 1006.4
20260504033918 3 205 0.0 3.2 0.00 0.03 0.03 65 1006.4
20260504033819 2 207 0.0 0.0 0.00 0.03 0.03 68 1006.4
20260504033713 2 207 0.0 0.0 0.00 0.03 0.03 68 1006.4
20260504033612 2 207 0.0 0.0 0.00 0.03 0.03 67 1006.4
20260504033512 2 207 0.0 0.0 0.00 0.03 0.03 67 1006.4
20260504033412 2 207 0.0 0.0 0.00 0.03 0.03 69 1006.4
20260504033314 2 207 0.0 0.0 0.00 0.03 0.03 67 1006.3
20260504033213 2 207 0.0 0.0 0.00 0.03 0.03 69 1006.4
20260504033111 2 207 0.0 0.0 0.00 0.03 0.03 68 1006.4
20260504033011 2 207 0.0 0.0 0.00 0.03 0.03 68 1006.4
20260504032910 2 206 0.0 0.0 0.00 0.03 0.03 67 1006.4
20260504032807 2 206 0.0 0.0 0.00 0.03 0.03 68 1006.4
20260504032708 2 206 0.0 0.0 0.00 0.03 0.03 68 1006.4
20260504032606 2 206 0.0 0.0 0.00 0.03 0.03 68 1006.4
20260504032507 2 206 0.0 0.0 0.00 0.03 0.03 68 1006.4
20260504032405 2 206 0.0 0.0 0.00 0.03 0.03 68 1006.4
20260504032305 2 206 0.0 4.8 0.00 0.03 0.03 69 1006.4
20260504032205 2 206 0.0 4.8 0.00 0.03 0.03 68 1006.3
20260504032106 2 201 0.0 4.8 0.00 0.03 0.03 68 1006.4
20260504032002 2 201 0.0 4.8 0.00 0.03 0.03 69 1006.4
20260504031901 2 201 0.0 4.8 0.00 0.03 0.03 69 1006.4
20260504031700 2 201 0.0 4.8 0.00 0.03 0.03 68 1006.4
20260504031601 2 201 0.0 4.8 0.00 0.03 0.03 68 1006.4
20260504031501 2 201 0.0 4.8 0.00 0.03 0.03 69 1006.4
20260504031401 2 201 0.0 4.8 0.00 0.03 0.03 69 1006.4
20260504031300 2 201 0.0 3.2 0.00 0.03 0.03 69 1006.4
20260504031200 2 201 0.0 0.0 0.00 0.03 0.03 69 1006.4
20260504031101 2 201 0.0 0.0 0.00 0.03 0.03 70 1006.4
20260504031000 2 201 0.0 0.0 0.00 0.03 0.03 69 1006.4
20260504030900 2 201 0.0 0.0 0.00 0.03 0.03 70 1006.4
20260504030702 2 201 0.0 0.0 0.00 0.03 0.03 69 1006.4
20260504030600 2 201 0.0 0.0 0.00 0.03 0.03 69 1006.4
20260504030500 2 201 0.0 0.0 0.00 0.03 0.03 70 1006.4
20260504030412 2 201 0.0 0.0 0.00 0.03 0.03 70 1006.4
20260504030351 2 201 0.0 0.0 0.00 0.03 0.03 70 1006.4
20260504030200 2 201 0.0 0.0 0.00 0.03 0.03 72 1006.4
20260504030101 2 201 0.0 0.0 0.00 0.03 0.03 71 1006.3
20260504030000 2 201 0.0 0.0 0.00 0.03 0.03 71 1006.4
20260504025910 2 201 0.0 0.0 0.00 0.03 0.03 69 1006.4
20260504025851 2 201 0.0 0.0 0.00 0.03 0.03 70 1006.4
20260504025701 2 201 0.0 0.0 0.00 0.03 0.03 70 1006.4
20260504025601 2 201 0.0 3.2 0.00 0.03 0.03 70 1006.4
20260504025501 2 201 0.0 3.2 0.00 0.03 0.03 71 1006.4
20260504025356 2 201 0.0 3.2 0.00 0.03 0.03 70 1006.4
20260504025157 2 201 0.0 3.2 0.00 0.03 0.03 70 1006.4
20260504025056 2 201 0.0 3.2 0.00 0.03 0.03 70 1006.4
20260504024958 2 201 0.0 3.2 0.00 0.03 0.03 72 1006.4
20260504024856 2 201 0.0 3.2 0.00 0.03 0.03 71 1006.4
20260504024757 2 201 0.0 3.2 0.00 0.03 0.03 69 1006.4
20260504024653 2 201 0.0 3.2 0.00 0.03 0.03 70 1006.4
20260504024552 2 274 0.0 0.0 0.00 0.03 0.03 69 1006.4
20260504024453 2 274 0.0 0.0 0.00 0.03 0.03 70 1006.4
20260504024352 2 274 0.0 0.0 0.00 0.05 0.03 70 1006.4
20260504024254 2 274 0.0 0.0 0.00 0.05 0.03 70 1006.4
20260504024153 2 274 0.0 0.0 0.00 0.05 0.03 69 1006.5
20260504024052 2 274 0.0 0.0 0.00 0.05 0.03 70 1006.5
20260504023953 2 274 0.0 3.2 0.00 0.05 0.03 70 1006.5
20260504023909 2 274 0.0 3.2 0.00 0.05 0.03 70 1006.5
20260504023848 2 274 0.0 3.2 0.00 0.05 0.03 70 1006.5
20260504023652 2 274 0.0 3.2 0.00 0.05 0.03 71 1006.5
20260504023552 2 274 0.0 3.2 0.00 0.05 0.03 71 1006.5
20260504023454 2 274 0.0 3.2 0.00 0.05 0.03 73 1006.5
20260504023352 2 274 0.0 3.2 0.00 0.05 0.03 70 1006.5
20260504023152 2 274 0.0 3.2 0.00 0.05 0.03 71 1006.6
20260504023052 2 274 0.0 3.2 0.00 0.05 0.03 72 1006.6
20260504022951 2 274 0.0 3.2 0.00 0.05 0.03 71 1006.6
20260504022852 2 274 0.0 0.0 0.00 0.05 0.03 73 1006.6
20260504022652 2 274 0.0 0.0 0.00 0.08 0.03 71 1006.6
20260504022552 2 274 0.0 0.0 0.00 0.08 0.03 71 1006.6
20260504022452 2 274 0.0 0.0 0.00 0.08 0.03 70 1006.6
20260504022405 2 274 0.0 0.0 0.00 0.08 0.03 70 1006.6
20260504022347 2 274 0.0 0.0 0.00 0.08 0.03 70 1006.6
20260504022152 2 274 0.0 0.0 0.00 0.08 0.03 71 1006.6
20260504022052 2 274 0.0 0.0 0.00 0.08 0.03 71 1006.6
20260504021954 2 274 0.0 0.0 0.00 0.08 0.03 70 1006.6
20260504021852 2 274 0.0 0.0 0.00 0.10 0.03 70 1006.7
20260504021652 2 274 0.0 0.0 0.00 0.10 0.03 68 1006.6
20260504021552 2 274 0.0 0.0 0.00 0.10 0.03 68 1006.6
20260504021452 3 274 0.0 1.6 0.00 0.10 0.03 68 1006.6
20260504021353 3 274 0.0 1.6 0.00 0.10 0.03 67 1006.6
20260504021154 3 274 0.0 3.2 0.00 0.10 0.03 69 1006.6
20260504021052 3 274 0.0 3.2 0.00 0.10 0.03 68 1006.6
20260504020954 3 274 0.0 3.2 0.00 0.10 0.03 68 1006.7
20260504020908 3 274 0.0 3.2 0.00 0.10 0.03 68 1006.7
20260504020845 3 274 0.0 3.2 0.00 0.10 0.03 70 1006.6
20260504020643 3 274 0.0 3.2 0.00 0.10 0.03 69 1006.6
20260504020543 3 274 0.0 3.2 0.00 0.10 0.03 68 1006.6
20260504020442 3 274 0.0 3.2 0.00 0.10 0.03 67 1006.6
20260504020342 3 274 0.0 3.2 0.00 0.10 0.03 68 1006.6
20260504020141 3 275 0.0 1.6 0.00 0.10 0.03 67 1006.6
20260504020037 3 275 0.0 1.6 0.00 0.10 0.03 68 1006.6
20260504015939 3 275 0.0 1.6 0.00 0.10 0.03 68 1006.6
20260504015838 3 275 0.0 1.6 0.00 0.10 0.03 69 1006.6
20260504015634 2 275 0.0 1.6 0.00 0.13 0.03 68 1006.6
20260504015533 2 275 0.0 1.6 0.00 0.13 0.03 69 1006.6
20260504015430 3 275 0.0 1.6 0.00 0.13 0.03 69 1006.6
20260504015332 3 275 0.0 1.6 0.00 0.13 0.03 71 1006.6
20260504015115 3 275 0.0 1.6 0.00 0.13 0.03 70 1006.6
20260504015017 3 275 0.0 1.6 0.00 0.13 0.03 70 1006.6
20260504014916 3 275 0.0 1.6 0.00 0.13 0.03 71 1006.5
20260504014816 3 275 0.0 1.6 0.00 0.13 0.03 70 1006.6
20260504014611 3 275 0.0 1.6 0.00 0.13 0.03 69 1006.5
20260504014510 3 275 0.0 1.6 0.00 0.13 0.03 69 1006.6
20260504014409 3 275 0.0 1.6 0.00 0.13 0.03 70 1006.6
20260504014308 3 275 0.0 1.6 0.00 0.13 0.03 72 1006.6
20260504014106 3 275 0.0 1.6 0.00 0.13 0.03 70 1006.6
20260504014034 3 275 0.0 1.6 0.00 0.13 0.03 69 1006.6
20260504013905 3 275 0.0 4.8 0.00 0.13 0.03 68 1006.6
20260504013830 3 275 0.0 4.8 0.00 0.13 0.03 70 1006.6
20260504013806 2 275 0.0 4.8 0.00 0.13 0.03 69 1006.5
20260504013556 2 275 0.0 4.8 0.00 0.13 0.03 68 1006.5
20260504013457 2 275 0.0 4.8 0.00 0.13 0.03 69 1006.5
20260504013357 2 275 0.0 4.8 0.00 0.13 0.03 70 1006.6
20260504013254 2 275 0.0 4.8 0.00 0.15 0.03 71 1006.5
20260504013054 2 275 0.0 4.8 0.00 0.15 0.03 70 1006.4
20260504013023 2 289 0.0 4.8 0.00 0.15 0.03 71 1006.5
20260504012851 2 246 0.0 4.8 0.00 0.15 0.03 72 1006.5
20260504012812 2 246 0.0 4.8 0.00 0.15 0.03 71 1006.4
20260504012751 2 245 0.0 4.8 0.00 0.15 0.03 70 1006.5
20260504012546 2 273 0.0 0.0 0.00 0.15 0.03 71 1006.5
20260504012445 2 273 0.0 0.0 0.00 0.15 0.03 70 1006.5
20260504012342 2 273 0.0 0.0 0.00 0.15 0.03 70 1006.4
20260504012244 2 273 0.0 0.0 0.00 0.15 0.03 71 1006.5
20260504012031 2 273 0.0 0.0 0.00 0.18 0.03 71 1006.5
20260504011930 2 273 0.0 0.0 0.00 0.18 0.03 71 1006.5
20260504011830 2 273 0.0 1.6 0.00 0.18 0.03 72 1006.4
20260504011754 2 273 0.0 3.2 0.00 0.18 0.03 72 1006.5
20260504011732 2 273 0.0 3.2 0.00 0.18 0.03 70 1006.5
20260504011527 2 273 0.0 3.2 0.00 0.18 0.03 70 1006.4
20260504011426 2 273 0.0 3.2 0.00 0.18 0.03 71 1006.4
20260504011325 2 273 0.0 3.2 0.00 0.20 0.03 71 1006.4
20260504011224 2 273 0.0 3.2 0.00 0.20 0.03 70 1006.4
20260504011016 2 273 0.0 3.2 0.00 0.20 0.03 71 1006.4
20260504010914 2 273 0.0 3.2 0.00 0.20 0.03 72 1006.4
20260504010816 2 273 0.0 3.2 0.00 0.23 0.03 72 1006.4
20260504010715 2 273 0.0 3.2 0.00 0.23 0.03 72 1006.4
20260504010508 2 273 0.0 3.2 0.00 0.23 0.03 71 1006.4
20260504010410 2 273 0.0 3.2 0.00 0.25 0.03 72 1006.4
20260504010307 2 273 0.0 9.7 0.00 0.25 0.03 73 1006.3
20260504010208 2 273 0.0 9.7 0.00 0.28 0.03 71 1006.3
20260504010006 2 273 0.0 9.7 0.00 0.30 0.03 72 1006.3
20260504005901 2 273 0.0 9.7 0.00 0.33 0.03 73 1006.3
20260504005804 2 273 0.0 9.7 0.00 0.36 0.03 71 1006.3
20260504005702 2 207 0.0 9.7 0.00 0.41 0.03 71 1006.3
20260504005454 2 207 0.0 9.7 0.00 0.43 0.03 71 1006.2
20260504005353 2 204 0.0 9.7 0.00 0.43 0.03 73 1006.2
20260504005253 2 5 0.0 4.8 0.00 0.43 0.03 74 1006.2
20260504005153 2 5 0.0 4.8 0.00 0.43 0.03 74 1006.2
20260504004944 2 5 0.0 4.8 0.00 0.43 0.03 75 1006.2
20260504004842 2 5 0.0 4.8 0.00 0.43 0.03 73 1006.2
20260504004740 2 5 0.0 4.8 0.00 0.43 0.03 72 1006.2
20260504004642 2 240 0.0 1.6 0.00 0.43 0.03 73 1006.1
20260504004438 2 240 0.0 1.6 0.00 0.43 0.03 73 1006.2
20260504004418 2 240 0.0 1.6 0.00 0.43 0.03 72 1006.2
20260504004241 2 240 0.0 1.6 0.00 0.43 0.03 72 1006.1
20260504004203 2 240 0.0 1.6 0.00 0.43 0.03 72 1006.1
20260504004138 2 240 0.0 1.6 0.00 0.43 0.03 73 1006.1
20260504003933 2 240 0.0 1.6 0.00 0.43 0.03 73 1006.1
20260504003830 2 240 0.0 1.6 0.00 0.43 0.03 72 1006.1
20260504003730 2 240 0.0 1.6 0.00 0.43 0.03 73 1006.1
20260504003630 2 240 0.0 1.6 0.00 0.43 0.03 72 1006.1
20260504003417 2 240 0.0 1.6 0.00 0.43 0.03 72 1006.0
20260504003316 2 240 0.0 1.6 0.00 0.43 0.03 72 1006.0
20260504003217 2 240 0.0 1.6 0.00 0.43 0.03 72 1006.0
20260504003115 2 240 0.0 1.6 0.00 0.43 0.03 73 1006.0
20260504002913 2 240 0.0 1.6 0.00 0.43 0.03 72 1006.1
20260504002810 2 240 0.0 1.6 0.00 0.43 0.03 72 1006.0
20260504002711 2 240 0.0 1.6 0.00 0.43 0.03 72 1006.0
20260504002637 2 240 0.0 1.6 0.00 0.43 0.03 72 1006.0
20260504002615 2 240 0.0 1.6 0.00 0.43 0.03 74 1006.0
20260504002407 3 240 0.0 1.6 0.00 0.43 0.03 73 1005.9
20260504002304 3 240 0.0 1.6 0.00 0.43 0.03 71 1005.9
20260504002206 3 240 0.0 0.0 0.00 0.43 0.03 70 1006.0
20260504002105 3 240 0.0 0.0 0.00 0.43 0.03 70 1006.0
20260504001855 3 240 0.0 0.0 0.00 0.43 0.03 71 1006.0
20260504001754 3 240 0.0 0.0 0.00 0.43 0.03 69 1006.0
20260504001655 3 240 0.0 0.0 0.00 0.43 0.03 69 1005.9
20260504001554 3 240 0.0 0.0 0.00 0.43 0.03 70 1005.9
20260504001345 3 240 0.0 0.0 0.00 0.43 0.03 72 1005.9
20260504001245 3 240 0.0 0.0 0.00 0.43 0.03 71 1005.9
20260504001144 3 240 0.0 0.0 0.00 0.43 0.03 71 1005.9
20260504001043 3 240 0.0 0.0 0.00 0.43 0.03 72 1005.9
20260504000841 3 240 0.0 3.2 0.00 0.43 0.03 69 1005.9
20260504000738 3 240 0.0 3.2 0.00 0.43 0.03 69 1005.8
20260504000640 3 240 0.0 3.2 0.00 0.43 0.03 68 1005.8
20260504000537 3 240 0.0 3.2 0.00 0.43 0.03 70 1005.8
20260504000332 3 240 0.0 3.2 0.00 0.43 0.03 69 1005.8
20260504000234 3 240 0.0 3.2 0.00 0.43 0.03 68 1005.7
20260504000132 3 240 0.0 3.2 0.00 0.43 0.03 68 1005.7
20260504000029 3 240 0.0 3.2 0.00 0.43 0.03 69 1005.8
20260503235821 3 244 0.0 1.6 0.00 0.43 0.03 70 1005.7
20260503235723 3 244 0.0 4.8 0.00 0.43 0.03 70 1005.7
20260503235622 3 244 0.0 4.8 0.00 0.43 0.03 68 1005.7
20260503235523 3 244 0.0 4.8 0.00 0.43 0.03 68 1005.6
20260503235316 3 244 0.0 4.8 0.00 0.43 0.03 67 1005.7
20260503235216 4 244 0.0 4.8 0.00 0.43 0.03 68 1005.6
20260503235117 4 244 0.0 4.8 0.00 0.43 0.03 68 1005.6
20260503235015 4 244 0.0 4.8 0.00 0.43 0.03 68 1005.6
20260503234805 4 244 0.0 4.8 0.00 0.43 0.03 66 1005.6
20260503234706 4 248 0.0 0.0 0.00 0.43 0.03 67 1005.7
20260503234605 4 248 0.0 0.0 0.00 0.43 0.03 67 1005.6
20260503234505 4 248 0.0 4.8 0.00 0.43 0.03 68 1005.6
20260503234259 4 248 0.0 4.8 0.00 0.43 0.03 66 1005.6
20260503234201 4 248 0.0 4.8 0.00 0.43 0.03 66 1005.6
20260503234058 4 248 0.0 4.8 0.00 0.43 0.03 67 1005.6
20260503233959 4 248 0.0 4.8 0.00 0.43 0.03 65 1005.6
20260503233753 4 248 0.0 4.8 0.00 0.43 0.03 67 1005.6
20260503233650 5 248 0.0 4.8 0.00 0.43 0.03 67 1005.6
20260503233551 5 248 0.0 4.8 0.00 0.43 0.03 67 1005.6
20260503233451 5 333 0.0 3.2 0.00 0.43 0.03 66 1005.6
20260503233243 5 260 0.0 1.6 0.00 0.43 0.03 66 1005.5
20260503233144 5 260 0.0 3.2 0.00 0.43 0.03 66 1005.5
20260503233044 5 260 0.0 3.2 0.00 0.43 0.03 66 1005.6
20260503232943 5 260 0.0 3.2 0.00 0.43 0.03 64 1005.5
20260503232738 5 260 1.6 11.3 0.00 0.43 0.03 64 1005.5
20260503232637 5 259 1.6 11.3 0.00 0.43 0.03 64 1005.5
20260503232538 5 259 1.6 11.3 0.00 0.43 0.03 64 1005.5
20260503232437 5 259 1.6 11.3 0.00 0.43 0.03 63 1005.5
20260503232228 5 258 1.6 11.3 0.00 0.43 0.03 64 1005.6
20260503232127 5 259 1.6 11.3 0.00 0.43 0.03 64 1005.6
20260503232029 5 258 1.6 11.3 0.00 0.43 0.03 64 1005.6
20260503231929 5 257 1.6 11.3 0.00 0.43 0.03 63 1005.6
20260503231715 5 202 1.6 4.8 0.00 0.43 0.03 63 1005.5
20260503231614 5 202 1.6 4.8 0.00 0.43 0.03 63 1005.5
20260503231513 5 202 1.6 4.8 0.00 0.43 0.03 63 1005.5
20260503231413 5 200 1.6 4.8 0.00 0.43 0.03 63 1005.5
20260503231209 5 17 1.6 8.0 0.00 0.43 0.03 64 1005.5
20260503231107 5 72 1.6 19.3 0.00 0.43 0.03 64 1005.4
20260503231009 5 66 1.6 19.3 0.00 0.43 0.03 63 1005.5
20260503230934 5 54 1.6 19.3 0.00 0.43 0.03 64 1005.5
20260503230913 5 54 1.6 19.3 0.00 0.43 0.03 64 1005.5
20260503230702 5 201 1.6 19.3 0.00 0.43 0.03 63 1005.5
20260503230603 5 201 1.6 19.3 0.00 0.43 0.03 62 1005.4
20260503230503 5 201 1.6 19.3 0.00 0.46 0.03 63 1005.5
20260503230401 5 201 1.6 19.3 0.00 0.46 0.03 62 1005.5
20260503230155 5 11 0.0 19.3 0.00 0.46 0.03 62 1005.4
20260503230053 5 278 0.0 4.8 0.00 0.46 0.03 63 1005.5
20260503225952 5 260 0.0 4.8 0.00 0.46 0.03 63 1005.5
20260503225853 5 260 0.0 6.4 0.00 0.46 0.03 63 1005.5
20260503225649 5 239 1.6 6.4 0.00 0.46 0.03 64 1005.4
20260503225545 5 239 1.6 6.4 0.00 0.46 0.03 63 1005.4
20260503225446 5 257 1.6 6.4 0.00 0.46 0.03 62 1005.5
20260503225345 5 257 1.6 6.4 0.00 0.46 0.03 61 1005.5
20260503225146 5 317 1.6 25.7 0.00 0.46 0.03 62 1005.5
20260503225045 5 318 3.2 25.7 0.00 0.46 0.03 61 1005.4
20260503224942 5 318 3.2 25.7 0.00 0.46 0.03 61 1005.4
20260503224841 5 286 3.2 25.7 0.00 0.46 0.03 62 1005.4
20260503224627 5 320 3.2 25.7 0.00 0.46 0.03 62 1005.4
20260503224526 5 296 3.2 25.7 0.00 0.46 0.03 63 1005.4
20260503224425 5 295 3.2 25.7 0.00 0.46 0.03 61 1005.4
20260503224327 5 295 3.2 25.7 0.00 0.46 0.03 62 1005.5
20260503224226 5 32 3.2 12.9 0.00 0.46 0.03 62 1005.4
20260503224122 5 302 3.2 11.3 0.00 0.46 0.03 62 1005.5
20260503224020 6 233 3.2 11.3 0.00 0.46 0.03 62 1005.5
20260503223920 6 12 3.2 11.3 0.00 0.46 0.03 61 1005.4
20260503223820 6 289 3.2 11.3 0.00 0.46 0.03 61 1005.5
20260503223720 6 323 1.6 11.3 0.00 0.46 0.03 60 1005.4
20260503223615 6 294 1.6 11.3 0.00 0.46 0.03 61 1005.4
20260503223513 6 241 3.2 11.3 0.00 0.46 0.03 61 1005.4
20260503223414 6 296 1.6 12.9 0.00 0.46 0.03 63 1005.3
20260503223314 6 302 1.6 12.9 0.00 0.46 0.03 61 1005.4
20260503223215 6 316 1.6 12.9 0.00 0.46 0.03 62 1005.3
20260503223108 6 43 1.6 12.9 0.00 0.46 0.03 60 1005.3
20260503223008 6 273 1.6 12.9 0.00 0.46 0.03 60 1005.3
20260503222908 6 246 1.6 12.9 0.00 0.46 0.03 61 1005.3
20260503222805 6 246 1.6 12.9 0.00 0.46 0.03 60 1005.1
20260503222705 6 241 1.6 12.9 0.00 0.46 0.03 61 1005.1
20260503222600 6 241 1.6 12.9 0.00 0.46 0.03 60 1005.3
20260503222500 6 288 1.6 12.9 0.00 0.46 0.03 62 1005.1
20260503222400 6 307 1.6 12.9 0.00 0.46 0.03 62 1005.3
20260503222300 6 307 3.2 12.9 0.00 0.46 0.03 61 1005.1
20260503222159 6 307 3.2 12.9 0.00 0.46 0.03 61 1005.1
20260503222054 6 307 3.2 12.9 0.00 0.46 0.03 61 1005.3
20260503221951 6 302 3.2 12.9 0.00 0.46 0.03 61 1005.1
20260503221853 6 302 3.2 12.9 0.00 0.46 0.03 62 1005.1
20260503221752 6 234 3.2 12.9 0.00 0.46 0.03 62 1005.1
20260503221653 6 22 3.2 12.9 0.00 0.46 0.03 60 1005.1
20260503221539 6 247 1.6 12.9 0.00 0.46 0.03 60 1005.3
20260503221437 6 293 1.6 12.9 0.00 0.46 0.03 61 1005.1
20260503221338 6 332 3.2 12.9 0.00 0.46 0.03 61 1005.1
20260503221138 6 313 3.2 12.9 0.00 0.46 0.03 61 1005.0
20260503221035 6 15 3.2 12.9 0.00 0.46 0.03 59 1005.0
20260503220936 6 16 3.2 12.9 0.00 0.46 0.03 59 1005.1
20260503220836 6 15 3.2 12.9 0.00 0.46 0.03 60 1005.1
20260503220632 6 214 4.8 16.1 0.00 0.46 0.03 61 1005.0
20260503220529 6 215 4.8 16.1 0.00 0.46 0.03 59 1005.0
20260503220425 6 214 4.8 16.1 0.00 0.46 0.03 59 1005.0
20260503220327 6 11 4.8 16.1 0.00 0.46 0.03 59 1004.9
20260503220225 6 14 3.2 16.1 0.00 0.46 0.03 60 1005.0
20260503220126 6 284 3.2 16.1 0.00 0.46 0.03 61 1004.8
20260503220016 6 273 3.2 16.1 0.00 0.46 0.03 59 1004.9
20260503215915 6 19 3.2 16.1 0.00 0.46 0.03 60 1004.9
20260503215817 6 20 3.2 16.1 0.00 0.46 0.03 59 1005.0
20260503215715 6 309 3.2 12.9 0.00 0.46 0.03 60 1005.0
20260503215616 6 275 3.2 12.9 0.00 0.46 0.03 60 1004.9
20260503215511 6 272 3.2 12.9 0.00 0.46 0.03 61 1004.9
20260503215411 6 28 3.2 12.9 0.00 0.46 0.03 61 1005.0
20260503215342 6 26 3.2 12.9 0.00 0.46 0.03 59 1005.0
20260503215211 6 341 3.2 12.9 0.00 0.46 0.03 60 1004.9
20260503215110 6 297 3.2 12.9 0.00 0.46 0.03 61 1004.9
20260503215005 6 299 3.2 12.9 0.00 0.46 0.03 61 1005.0
20260503214903 6 316 3.2 12.9 0.00 0.46 0.03 59 1004.9
20260503214805 6 312 3.2 12.9 0.00 0.46 0.03 60 1004.9
20260503214704 6 312 3.2 9.7 0.00 0.46 0.03 59 1004.9
20260503214604 6 282 3.2 12.9 0.00 0.46 0.03 60 1004.9
20260503214454 6 261 3.2 12.9 0.00 0.46 0.03 59 1004.9
20260503214354 6 261 3.2 12.9 0.00 0.46 0.03 60 1004.9
20260503214255 6 5 3.2 12.9 0.00 0.46 0.03 59 1004.9
20260503214152 6 261 3.2 12.9 0.00 0.46 0.03 59 1004.9
20260503214050 6 288 3.2 12.9 0.00 0.46 0.03 59 1004.9
20260503213946 6 205 3.2 12.9 0.00 0.48 0.03 59 1005.0
20260503213844 6 336 3.2 12.9 0.00 0.48 0.03 58 1004.9
20260503213743 6 317 3.2 12.9 0.00 0.48 0.03 59 1004.9
20260503213644 6 173 3.2 12.9 0.00 0.48 0.03 59 1004.9
20260503213544 6 275 3.2 14.5 0.00 0.48 0.03 60 1005.0
20260503213443 6 301 3.2 14.5 0.00 0.48 0.03 62 1005.0
20260503213342 6 302 3.2 14.5 0.00 0.48 0.03 60 1005.0
20260503213242 6 317 3.2 14.5 0.00 0.48 0.03 60 1004.9
20260503213140 6 292 3.2 14.5 0.00 0.48 0.03 60 1005.0
20260503213038 6 0 3.2 14.5 0.00 0.48 0.03 58 1004.9
20260503212928 6 339 3.2 14.5 0.00 0.48 0.03 57 1004.9
20260503212828 6 186 3.2 14.5 0.00 0.48 0.03 58 1005.0
20260503212628 6 323 1.6 14.5 0.00 0.48 0.03 59 1005.0
20260503212528 6 252 1.6 11.3 0.00 0.48 0.03 58 1005.0
20260503212424 6 252 3.2 14.5 0.00 0.48 0.03 58 1005.0
20260503212324 6 168 3.2 14.5 0.00 0.48 0.03 57 1004.9
20260503212224 6 282 1.6 14.5 0.00 0.48 0.03 58 1004.9
20260503212124 6 109 3.2 14.5 0.00 0.48 0.03 58 1004.9
20260503212022 6 14 3.2 14.5 0.00 0.48 0.03 58 1004.9
20260503211919 6 288 3.2 14.5 0.00 0.48 0.03 59 1005.0
20260503211815 6 279 3.2 14.5 0.00 0.48 0.03 59 1005.0
20260503211615 6 267 3.2 14.5 0.00 0.48 0.03 59 1004.9
20260503211516 6 10 3.2 14.5 0.00 0.48 0.03 60 1004.9
20260503211405 6 193 3.2 9.7 0.00 0.48 0.03 62 1004.9
20260503211306 6 170 3.2 9.7 0.00 0.48 0.03 60 1005.0
20260503211206 6 62 3.2 9.7 0.00 0.48 0.03 57 1004.9
20260503211105 6 31 3.2 9.7 0.00 0.48 0.03 59 1005.0
20260503211007 6 30 3.2 9.7 0.00 0.48 0.03 57 1004.9
20260503210906 6 25 3.2 9.7 0.00 0.48 0.03 59 1005.0
20260503210805 6 258 1.6 9.7 0.00 0.48 0.03 58 1005.0
20260503210702 6 269 1.6 8.0 0.00 0.48 0.03 58 1004.9
20260503210602 6 267 1.6 8.0 0.00 0.48 0.03 58 1004.9
20260503210500 6 213 1.6 8.0 0.00 0.48 0.03 57 1004.9
20260503210354 6 306 1.6 8.0 0.00 0.51 0.03 58 1005.0
20260503210253 6 310 1.6 8.0 0.00 0.53 0.03 60 1005.0
20260503210155 6 323 1.6 8.0 0.00 0.53 0.03 60 1004.9
20260503210055 6 17 3.2 9.7 0.00 0.56 0.03 60 1004.8
20260503205954 6 15 3.2 9.7 0.00 0.58 0.03 60 1004.9
20260503205841 6 355 3.2 9.7 0.00 0.58 0.03 59 1004.9
20260503205742 6 338 3.2 9.7 0.00 0.58 0.03 61 1004.8
20260503205641 6 338 3.2 9.7 0.00 0.58 0.03 62 1004.8
20260503205543 6 317 3.2 9.7 0.00 0.58 0.03 60 1004.8
20260503205440 6 306 3.2 9.7 0.00 0.61 0.03 58 1004.8
20260503205336 6 11 3.2 9.7 0.00 0.61 0.03 58 1004.8
20260503205233 6 319 3.2 19.3 0.00 0.61 0.03 61 1004.8
20260503205135 6 5 3.2 19.3 0.00 0.61 0.03 61 1004.8
20260503205033 6 5 3.2 19.3 0.00 0.61 0.03 63 1004.8
20260503204935 6 60 3.2 19.3 0.00 0.61 0.03 62 1004.7
20260503204834 6 13 3.2 19.3 0.00 0.61 0.03 61 1004.7
20260503204735 6 109 3.2 19.3 0.00 0.61 0.03 60 1004.6
20260503204635 6 159 3.2 19.3 0.00 0.61 0.03 60 1004.9
20260503204532 6 0 3.2 19.3 0.00 0.61 0.03 59 1004.8
20260503204432 6 0 4.8 19.3 0.00 0.61 0.03 60 1004.8
20260503204345 6 348 4.8 19.3 0.00 0.61 0.03 60 1004.8
20260503204324 6 50 4.8 19.3 0.00 0.61 0.03 62 1004.8
20260503204129 6 194 4.8 19.3 0.00 0.61 0.03 61 1004.8
20260503204029 6 24 4.8 19.3 0.00 0.61 0.03 63 1004.8
20260503203930 6 11 4.8 19.3 0.00 0.61 0.03 63 1004.8
20260503203829 6 284 6.4 19.3 0.00 0.61 0.03 61 1004.8
20260503203729 6 298 4.8 19.3 0.00 0.64 0.03 60 1004.7
20260503203629 6 286 4.8 19.3 0.00 0.64 0.03 61 1004.9
20260503203531 6 294 4.8 19.3 0.00 0.64 0.03 60 1004.8
20260503203429 6 317 4.8 17.7 0.00 0.64 0.03 62 1004.8
20260503203329 6 296 4.8 17.7 0.00 0.64 0.03 60 1004.7
20260503203229 6 297 4.8 17.7 0.00 0.64 0.03 60 1004.8
20260503203131 6 318 4.8 17.7 0.00 0.64 0.03 59 1004.7
20260503203031 6 217 3.2 17.7 0.00 0.64 0.03 59 1004.9
20260503202927 6 11 3.2 11.3 0.00 0.66 0.03 60 1004.7
20260503202829 6 244 3.2 11.3 0.00 0.66 0.03 59 1004.8
20260503202728 6 188 3.2 11.3 0.00 0.66 0.03 59 1004.8
20260503202627 6 306 3.2 11.3 0.00 0.66 0.03 59 1004.7
20260503202527 6 192 1.6 9.7 0.00 0.66 0.03 59 1004.7
20260503202429 6 115 1.6 9.7 0.00 0.66 0.03 59 1004.8
20260503202329 6 113 3.2 14.5 0.00 0.66 0.03 58 1004.8
20260503202222 6 105 3.2 14.5 0.00 0.66 0.03 58 1004.7
20260503202124 6 34 3.2 14.5 0.00 0.66 0.03 57 1004.7
20260503202025 6 94 3.2 14.5 0.00 0.66 0.03 60 1004.6
20260503201925 6 115 3.2 14.5 0.00 0.66 0.03 62 1004.7
20260503201831 6 108 1.6 14.5 0.00 0.66 0.03 60 1004.7
20260503201812 6 66 1.6 14.5 0.00 0.66 0.03 59 1004.6
20260503201623 6 66 1.6 14.5 0.00 0.66 0.03 58 1004.7
20260503201552 6 66 3.2 14.5 0.00 0.66 0.03 59 1004.6
20260503201424 6 5 3.2 19.3 0.00 0.66 0.03 59 1004.7
20260503201344 6 355 4.8 29.0 0.00 0.66 0.03 60 1004.7
20260503201322 6 318 4.8 29.0 0.00 0.66 0.03 64 1004.7
20260503201123 6 217 4.8 29.0 0.00 0.66 0.03 61 1004.7
20260503201048 6 355 6.4 29.0 0.00 0.66 0.03 60 1004.7
20260503200923 6 355 6.4 29.0 0.00 0.66 0.03 60 1004.7
20260503200841 6 355 6.4 29.0 0.00 0.66 0.03 61 1004.7
20260503200820 6 350 6.4 29.0 0.00 0.66 0.03 62 1004.7
20260503200623 6 355 8.0 29.0 0.00 0.66 0.03 60 1004.7
20260503200523 6 321 8.0 29.0 0.00 0.66 0.03 60 1004.7
20260503200423 6 302 8.0 29.0 0.00 0.66 0.03 60 1004.7
20260503200324 6 18 8.0 29.0 0.00 0.66 0.03 61 1004.7
20260503200225 6 34 6.4 27.4 0.00 0.66 0.03 61 1004.8
20260503200123 6 46 8.0 27.4 0.00 0.66 0.03 60 1004.7
20260503200023 6 9 8.0 27.4 0.00 0.66 0.03 60 1004.8
20260503195923 6 252 8.0 27.4 0.00 0.66 0.03 59 1004.7
20260503195823 6 9 8.0 27.4 0.00 0.66 0.03 60 1004.7
20260503195724 6 5 8.0 27.4 0.00 0.66 0.03 60 1004.7
20260503195623 6 279 8.0 27.4 0.00 0.66 0.03 60 1004.6
20260503195525 6 293 8.0 27.4 0.00 0.66 0.03 60 1004.6
20260503195425 6 34 6.4 22.5 0.00 0.66 0.03 59 1004.8
20260503195324 6 0 6.4 19.3 0.00 0.66 0.03 58 1004.6
20260503195224 6 0 6.4 19.3 0.00 0.66 0.03 59 1004.7
20260503195123 6 20 6.4 19.3 0.00 0.66 0.03 59 1004.6
20260503195023 6 322 4.8 17.7 0.00 0.66 0.03 59 1004.8
20260503194923 6 30 4.8 12.9 0.00 0.66 0.03 59 1004.7
20260503194825 6 0 4.8 12.9 0.00 0.66 0.03 59 1004.7
20260503194723 6 302 3.2 12.9 0.00 0.66 0.03 60 1004.6
20260503194623 6 244 3.2 12.9 0.00 0.66 0.03 59 1004.7
20260503194523 6 301 3.2 12.9 0.00 0.66 0.03 58 1004.6
20260503194423 6 331 3.2 16.1 0.00 0.66 0.03 58 1004.6
20260503194324 6 323 3.2 20.9 0.00 0.66 0.03 57 1004.7
20260503194117 7 286 3.2 20.9 0.00 0.66 0.03 58 1004.5
20260503194017 7 241 3.2 20.9 0.00 0.66 0.03 58 1004.7
20260503193915 7 292 3.2 20.9 0.00 0.66 0.03 58 1004.7
20260503193815 7 290 3.2 20.9 0.00 0.66 0.03 58 1004.6
20260503193615 7 294 6.4 20.9 0.00 0.66 0.03 60 1004.7
20260503193516 7 301 6.4 20.9 0.00 0.66 0.03 57 1004.6
20260503193416 7 9 6.4 17.7 0.00 0.66 0.03 58 1004.6
20260503193315 7 243 6.4 17.7 0.00 0.66 0.03 57 1004.7
20260503193115 7 11 6.4 27.4 0.00 0.66 0.03 56 1004.6
20260503193015 7 28 6.4 27.4 0.00 0.66 0.03 54 1004.6
20260503192915 7 213 8.0 27.4 0.00 0.66 0.03 55 1004.6
20260503192816 7 274 8.0 27.4 0.00 0.66 0.03 55 1004.5
20260503192617 7 30 8.0 32.2 0.00 0.66 0.03 58 1004.7
20260503192515 7 0 8.0 32.2 0.00 0.66 0.03 58 1004.6
20260503192415 7 48 9.7 32.2 0.00 0.66 0.03 58 1004.6
20260503192315 7 213 9.7 32.2 0.00 0.66 0.03 57 1004.6
20260503192114 7 281 9.7 32.2 0.00 0.66 0.03 58 1004.5
20260503192016 7 286 9.7 32.2 0.00 0.66 0.03 57 1004.7
20260503191915 7 273 9.7 32.2 0.00 0.66 0.03 56 1004.6
20260503191842 7 269 9.7 32.2 0.00 0.66 0.03 57 1004.6
20260503191819 7 31 6.4 32.2 0.00 0.66 0.03 56 1004.5
20260503191611 7 19 6.4 22.5 0.00 0.66 0.03 57 1004.6
20260503191511 7 15 8.0 22.5 0.00 0.66 0.03 56 1004.7
20260503191410 7 339 8.0 29.0 0.00 0.66 0.03 55 1004.7
20260503191309 7 46 8.0 30.6 0.00 0.66 0.03 56 1004.6
20260503191104 7 323 8.0 30.6 0.00 0.66 0.03 57 1004.7
20260503191003 7 255 8.0 30.6 0.00 0.66 0.03 59 1004.7
20260503190903 7 342 8.0 30.6 0.00 0.66 0.03 60 1004.6
20260503190803 7 37 8.0 30.6 0.00 0.66 0.03 60 1004.7
20260503190554 7 15 8.0 30.6 0.00 0.66 0.03 56 1004.4
20260503190454 7 30 6.4 30.6 0.00 0.66 0.03 57 1004.5
20260503190354 8 312 6.4 30.6 0.00 0.66 0.03 57 1004.5
20260503190252 8 14 6.4 17.7 0.00 0.66 0.03 59 1004.6
20260503190048 8 13 4.8 17.7 0.00 0.66 0.03 59 1004.7
20260503185946 8 315 6.4 17.7 0.00 0.66 0.03 59 1004.6
20260503185848 8 5 4.8 17.7 0.00 0.66 0.03 60 1004.6
20260503185748 7 355 6.4 17.7 0.00 0.66 0.03 60 1004.6
20260503185534 7 13 6.4 17.7 0.00 0.66 0.03 58 1004.6
20260503185434 7 11 6.4 17.7 0.00 0.66 0.03 58 1004.5
20260503185334 7 248 6.4 14.5 0.00 0.66 0.03 60 1004.6
20260503185233 8 294 6.4 14.5 0.00 0.66 0.03 60 1004.7
20260503185028 8 313 6.4 17.7 0.00 0.66 0.03 58 1004.6
20260503184926 8 265 6.4 17.7 0.00 0.66 0.03 57 1004.6
20260503184828 8 221 6.4 17.7 0.00 0.66 0.03 59 1004.6
20260503184728 8 192 6.4 17.7 0.00 0.66 0.03 59 1004.5
20260503184524 8 311 6.4 20.9 0.00 0.66 0.03 60 1004.4
20260503184422 8 307 6.4 20.9 0.00 0.66 0.03 62 1004.5
20260503184322 7 263 6.4 20.9 0.00 0.66 0.03 60 1004.5
20260503184222 7 315 6.4 20.9 0.00 0.66 0.03 58 1004.5
20260503184012 7 326 6.4 20.9 0.00 0.66 0.03 59 1004.5
20260503183911 7 180 6.4 20.9 0.00 0.66 0.03 60 1004.4
20260503183812 7 330 8.0 20.9 0.00 0.66 0.03 60 1004.7
20260503183711 7 328 8.0 20.9 0.00 0.66 0.03 56 1004.5
20260503183505 7 14 8.0 24.1 0.00 0.66 0.03 57 1004.4
20260503183442 7 46 8.0 24.1 0.00 0.66 0.03 55 1004.5
20260503183306 8 5 8.0 24.1 0.00 0.66 0.03 57 1004.5
20260503183230 8 301 8.0 24.1 0.00 0.66 0.03 59 1004.5